Location: Costa Valle Imagna
(45.8000°N, 9.5000°E)
Time: 15:07:30
(UTC+00:00)

Lacrosse 5 - Pass Details

Date: 17 February 2020
Orbit: 715 x 724 km, 57.0° (Epoch: 21 March)

Event Time Altitude Azimuth Distance (km) Brightness Sun altitude
Exits shadow 02:59:22 26° 50° (NE) 1,403 3.8 -35.6°
Drops below altitude 10° 03:02:23 10° 81° (E) 2,209 5.1 -35.1°
Sets 03:05:02 0° 92° (E) 3,129 6.0 -34.7°
